Location: Nitra
(0.0000°N, 18.0833°E)
Time: 09:56:24
(UTC+02:00)

Envisat - Visible Passes

Search period start: 23 April 2021 00:00
Search period end: 03 May 2021 00:00
Orbit: 764 x 766 km, 98.1° (Epoch: 22 April)

Date Brightness Start Highest point End Pass type
(mag) Time Alt. Az. Time Alt. Az. Time Alt. Az.
23 Apr 3.9 05:37:02 10° NNE 05:41:55 50° ESE 05:46:50 10° S visible
24 Apr 5.7 05:01:54 10° ENE 05:05:14 18° ESE 05:08:33 10° SE visible
24 Apr 6.4 19:13:59 10° WSW 19:15:01 11° WSW 19:16:01 10° W visible
25 Apr 2.9 06:02:11 10° N 06:07:14 78° W 06:12:19 10° SSW visible
26 Apr 4.5 05:25:53 10° NE 05:30:30 36° ESE 05:35:09 10° SSE visible
27 Apr 5.9 04:51:40 10° ENE 04:53:49 13° ESE 04:55:58 10° SE visible
28 Apr 3.2 05:50:45 10° NNE 05:55:49 77° ESE 06:00:54 10° S visible
29 Apr 5.1 05:14:53 10° NE 05:19:06 27° ESE 05:23:18 10° SSE visible
30 Apr 3.2 06:16:14 10° N 06:21:07 50° WNW 06:26:02 10° SSW visible
01 May 3.7 05:39:26 10° NNE 05:44:23 56° ESE 05:49:22 10° S visible
02 May 5.5 05:04:05 10° ENE 05:07:41 20° ESE 05:11:17 10° SSE visible
